Regional Weather Roundup
Issued by NWS Green Bay, WI

Home | Current Version | Previous Version | Graphics & Text | Print | Product List | Glossary Off
Versions: 1 2 3 4 5 6 7 8 9 10 11 12 13 14 15 16 17 18 19 20 21 22 23 24 25 26 27 28 29 30 31 32 33 34 35 36 37 38 39 40 41 42 43 44 45 46 47 48 49 50

000
ASUS43 KGRB 272359
RWRGRB

NORTH-CENTRAL AND NORTHEAST WISCONSIN REGIONAL WEATHER ROUNDUP
NATIONAL WEATHER SERVICE GREEN BAY WI
700 PM CDT SUN JUL 27 2014

WIZ005-009-010>012-018-019-280100-
NORTH CENTRAL WISCONSIN

CITY           SKY/WX    TMP DP  RH WIND       PRES   REMARKS
IRONWOOD       PTSUNNY   63  52  67 N8        30.00R
MANITOWISH WTR NOT AVBL
ARBOR VITAE    NOT AVBL
EAGLE RIVER    NOT AVBL
LAND O LAKES   NOT AVBL
RHINELANDER    MOSUNNY   60  51  72 N10       29.98R
PHILLIPS       CLOUDY    61  51  69 N14G20    30.00R
ANTIGO         NOT AVBL
TOMAHAWK       NOT AVBL
MERRILL        NOT AVBL
$$

WIZ013-073-280100-
NORTHEAST WISCONSIN

CITY           SKY/WX    TMP DP  RH WIND       PRES   REMARKS
IRON MOUNTAIN  PTSUNNY   65  49  56 N20G25    29.91R
MARINETTE      PTSUNNY   64  52  63 N14G23    29.85R
$$

WIZ017-030-035>037-045-280100-
CENTRAL WISCONSIN

CITY           SKY/WX    TMP DP  RH WIND       PRES   REMARKS
MEDFORD        NOT AVBL
WAUSAU         CLOUDY    64  55  72 N16G25    29.92R
MOSINEE        PTSUNNY   64  59  82 N14G23    29.93R
MARSHFIELD     PTSUNNY   68  59  73 N13G22    29.93R
WISC RAPIDS    SUNNY     69  59  70 MISG      29.91R
STEVENS POINT  NOT AVBL
WAUPACA        PTSUNNY   68  62  83 N9        29.88R
SHAWANO        SUNNY     67  57  71 N16       29.89R
CLINTONVILLE   PTSUNNY   68  54  60 N16G23    29.88R
$$

WIZ038-039-048-051-280100-
FOX VALLEY

CITY           SKY/WX    TMP DP  RH WIND       PRES   REMARKS
NWS GREEN BAY  CLOUDY    67  57  70 N16       29.86R
APPLETON       PTSUNNY   66  57  72 N21G31    29.86R
OSHKOSH        CLOUDY    68  60  75 N21       29.84R
FOND DU LAC    CLOUDY    69  59  70 N16G25    29.84R
$$

WIZ022-050-052-280100-
EAST CENTRAL WISCONSIN

CITY           SKY/WX    TMP DP  RH WIND       PRES   REMARKS
STURGEON BAY   CLOUDY    63  52  67 N20G28    29.85R
MANITOWOC      NOT AVBL
SHEBOYGAN      CLOUDY    66  60  81 N14G24    29.81R
$$

LMZ563-521-522-541>543-280100-
LAKESHORE

STATION/POSITION TIME  TEMP    WIND        PRES    VSBY  WAVE
                       AIR SEA DIR/SP/G                  HT/PER
                 (UTC) (F)     (DEG/KT/KT) (MB)    (MI)  (FT/S)
SHEBOYGAN LKSHOR 2300   58     360/ 10/ 12 1008.5R
KEWAUNEE LKSHORE 2300   65     350/ 11/ 17 1010.3R
NORTHPORT PIER   2300   63     340/ 22/ 29 1010.2R
N MID LAKE BUOY  2300   60 55  360/ 19/ 23 1007.7R         3/ 4
CHAMBERS ISLAND  2300   63     330/ 21/ 24 1010.5R
MENOMINEE LKSHOR 2300   62     340/ 17/ 23 1011.3R
$$



USA.gov is the U.S. government's official web portal to all federal, state and local government web resources and services.